GW6129 Weather Reports


time (UTC)temp
C
wind
direction
speed
KPH
gust
KPH
rain 1hr
cm
rain 24hr
cm
rain mn
cm
humidity
%
barometer
mb
20260510022506 25 157 6.4 14.5 0.00 0.00 0.00 66 1009.8
20260510022012 25 155 8.0 14.5 0.00 0.00 0.00 66 1009.7
20260510021522 25 154 6.4 12.9 0.00 0.00 0.00 66 1009.6
20260510021009 25 189 6.4 12.9 0.00 0.00 0.00 66 1009.6
20260510015512 25 150 4.8 9.7 0.00 0.00 0.00 67 1009.4
20260510015003 25 149 3.2 8.0 0.00 0.00 0.00 69 1009.3
20260510014513 25 150 3.2 8.0 0.00 0.00 0.00 69 1009.2
20260510014007 26 150 4.8 9.7 0.00 0.00 0.00 68 1009.2
20260510013508 26 161 4.8 11.3 0.00 0.00 0.00 68 1009.2
20260510013011 26 180 4.8 11.3 0.00 0.00 0.00 69 1009.2
20260510012508 26 171 4.8 9.7 0.00 0.00 0.00 69 1009.2
20260510012010 26 153 3.2 12.9 0.00 0.00 0.00 69 1009.2
20260510011521 27 173 4.8 14.5 0.00 0.00 0.00 69 1009.1
20260510010506 27 172 9.7 17.7 0.00 0.00 0.00 68 1009.1
20260510010025 27 183 11.3 17.7 0.00 0.00 0.00 69 1009.0
20260510005507 28 144 11.3 17.7 0.00 0.00 0.00 70 1009.0
20260510005011 28 142 3.2 6.4 0.00 0.00 0.00 70 1008.9
20260510004524 28 163 3.2 8.0 0.00 0.00 0.00 69 1008.8
20260510004007 28 173 1.6 8.0 0.00 0.00 0.00 68 1008.9
20260510003507 28 164 3.2 6.4 0.00 0.00 0.00 67 1008.9
20260510003014 29 153 3.2 11.3 0.00 0.00 0.00 66 1008.8
20260510002508 29 163 6.4 16.1 0.00 0.00 0.00 65 1008.9
20260510002011 29 155 6.4 16.1 0.00 0.00 0.00 66 1008.8
20260510001522 29 131 8.0 16.1 0.00 0.00 0.00 65 1008.8
20260510001012 30 138 4.8 9.7 0.00 0.00 0.00 66 1008.7
20260510000510 30 150 4.8 9.7 0.00 0.00 0.00 65 1008.7
20260510000016 30 183 3.2 9.7 0.00 0.00 0.00 65 1008.5
20260509235507 30 158 3.2 6.4 0.00 0.00 0.00 63 1008.5
20260509235013 30 169 3.2 6.4 0.00 0.00 0.00 65 1008.4
20260509234528 30 147 1.6 6.4 0.00 0.00 0.00 63 1008.5
20260509233510 30 109 0.0 3.2 0.00 0.00 0.00 59 1008.4
20260509233016 30 165 0.0 3.2 0.00 0.00 0.00 61 1008.4
20260509232507 30 92 1.6 3.2 0.00 0.00 0.00 62 1008.4
20260509232011 30 105 0.0 3.2 0.00 0.00 0.00 63 1008.3
20260509231519 30 181 0.0 3.2 0.00 0.00 0.00 60 1008.3
20260509231007 30 24 1.6 3.2 0.00 0.00 0.00 61 1008.2
20260509230513 30 44 0.0 3.2 0.00 0.00 0.00 61 1008.3
20260509230022 30 51 0.0 3.2 0.00 0.00 0.00 60 1008.3
20260509225510 30 109 0.0 4.8 0.00 0.00 0.00 59 1008.3
20260509225006 30 46 1.6 4.8 0.00 0.00 0.00 62 1008.4
20260509224521 30 122 3.2 4.8 0.00 0.00 0.00 60 1008.2
20260509224010 30 150 1.6 6.4 0.00 0.00 0.00 63 1008.2
20260509223507 30 178 3.2 6.4 0.00 0.00 0.00 65 1008.1
20260509222508 30 211 0.0 3.2 0.00 0.00 0.00 64 1008.1
20260509222008 30 238 3.2 6.4 0.00 0.00 0.00 61 1008.1
20260509221514 30 173 1.6 6.4 0.00 0.00 0.00 62 1008.1
20260509221009 30 149 1.6 8.0 0.00 0.00 0.00 63 1007.9
20260509220508 30 271 1.6 8.0 0.00 0.00 0.00 63 1008.0
20260509220016 30 131 3.2 8.0 0.00 0.00 0.00 61 1008.0
20260509215511 30 194 1.6 4.8 0.00 0.00 0.00 64 1008.1
20260509215010 30 242 1.6 6.4 0.00 0.00 0.00 62 1008.2
20260509214526 30 246 0.0 6.4 0.00 0.00 0.00 62 1008.3
20260509213508 31 281 1.6 6.4 0.00 0.00 0.00 61 1008.6
20260509213024 30 219 3.2 6.4 0.00 0.00 0.00 63 1008.5
20260509212010 30 33 3.2 6.4 0.00 0.00 0.00 65 1008.7
20260509211527 30 327 0.0 3.2 0.00 0.00 0.00 65 1008.8
20260509211006 30 81 0.0 4.8 0.00 0.00 0.00 62 1008.7
20260509210508 30 12 1.6 6.4 0.00 0.00 0.00 65 1008.9
20260509210026 30 167 1.6 9.7 0.00 0.00 0.00 67 1009.0
20260509205511 30 189 3.2 9.7 0.00 0.00 0.00 64 1009.0
20260509205006 30 211 4.8 9.7 0.00 0.00 0.00 64 1009.1
20260509204521 30 259 1.6 4.8 0.00 0.00 0.00 64 1009.1
20260509204011 29 145 0.0 4.8 0.00 0.00 0.00 63 1009.2
20260509203511 30 160 1.6 6.4 0.00 0.00 0.00 62 1009.2
20260509203018 30 321 3.2 6.4 0.00 0.00 0.00 64 1009.4
20260509202510 30 272 1.6 6.4 0.00 0.00 0.00 65 1009.5
20260509202009 29 257 3.2 4.8 0.00 0.00 0.00 71 1009.6
20260509201009 28 228 0.0 3.2 0.00 0.00 0.00 72 1009.7
20260509200513 28 303 0.0 3.2 0.00 0.00 0.00 74 1009.8
20260509200014 28 303 0.0 3.2 0.00 0.00 0.00 69 1010.0
20260509195509 28 303 0.0 3.2 0.00 0.00 0.00 68 1010.0
20260509195007 28 291 0.0 3.2 0.00 0.00 0.00 68 1009.9
20260509194524 28 314 0.0 3.2 0.00 0.00 0.00 68 1009.9
20260509194010 29 281 0.0 8.0 0.00 0.00 0.00 68 1009.8
20260509193516 29 309 1.6 8.0 0.00 0.00 0.00 67 1009.8
20260509193008 30 23 3.2 6.4 0.00 0.00 0.00 66 1009.7
20260509192507 29 222 1.6 4.8 0.00 0.00 0.00 68 1009.7
20260509192005 29 115 0.0 9.7 0.00 0.00 0.00 64 1009.8
20260509191508 30 249 3.2 9.7 0.00 0.00 0.00 66 1010.0
20260509191007 30 211 4.8 9.7 0.00 0.00 0.00 68 1010.0
20260509190508 29 288 1.6 8.0 0.00 0.00 0.00 65 1010.1
20260509190006 29 277 3.2 8.0 0.00 0.00 0.00 69 1010.1
20260509185503 29 211 1.6 6.4 0.00 0.00 0.00 67 1010.2
20260509185010 29 234 1.6 8.0 0.00 0.00 0.00 68 1010.2
20260509184532 29 352 1.6 8.0 0.00 0.00 0.00 71 1010.2
20260509183507 28 242 1.6 4.8 0.00 0.00 0.00 71 1010.4
20260509183004 28 352 3.2 4.8 0.00 0.00 0.00 70 1010.4
20260509182502 28 275 0.0 9.7 0.00 0.00 0.00 73 1010.6
20260509182006 28 189 1.6 9.7 0.00 0.00 0.00 71 1010.6
20260509181508 28 187 6.4 8.0 0.00 0.00 0.00 74 1010.6
20260509181006 28 221 3.2 8.0 0.00 0.00 0.00 74 1010.7
20260509180504 28 200 4.8 8.0 0.00 0.00 0.00 71 1010.8
20260509180020 28 244 1.6 4.8 0.00 0.00 0.00 73 1010.8
20260509175510 27 225 0.0 6.4 0.00 0.00 0.00 75 1011.0
20260509175004 27 244 1.6 6.4 0.00 0.00 0.00 73 1011.0
20260509174509 28 10 0.0 6.4 0.00 0.00 0.00 73 1011.0
20260509174007 28 257 1.6 8.0 0.00 0.00 0.00 73 1011.1
20260509173509 27 318 3.2 8.0 0.00 0.00 0.00 74 1011.2
20260509172507 27 231 4.8 9.7 0.00 0.00 0.00 75 1011.1
20260509172003 27 352 3.2 12.9 0.00 0.00 0.00 78 1011.1
20260509171506 27 296 3.2 12.9 0.00 0.00 0.00 76 1011.1
20260509171006 27 288 3.2 11.3 0.00 0.00 0.00 77 1011.1
20260509170505 26 347 3.2 11.3 0.00 0.00 0.00 79 1011.2
20260509170014 27 352 4.8 11.3 0.00 0.00 0.00 77 1011.1
20260509165507 27 310 3.2 9.7 0.00 0.00 0.00 81 1011.1
20260509165009 26 340 3.2 8.0 0.00 0.00 0.00 80 1011.2
20260509164518 26 15 3.2 11.3 0.00 0.00 0.00 79 1011.2
20260509164004 26 338 3.2 11.3 0.00 0.00 0.00 80 1011.3
20260509163510 27 16 3.2 8.0 0.00 0.00 0.00 79 1011.4
20260509163028 27 352 4.8 9.7 0.00 0.00 0.00 79 1011.3
20260509161515 26 348 1.6 6.4 0.00 0.00 0.00 83 1011.3
20260509161005 26 276 3.2 6.4 0.00 0.00 0.00 85 1011.5
20260509160503 25 16 0.0 3.2 0.00 0.00 0.00 86 1011.4
20260509160008 25 100 0.0 4.8 0.00 0.00 0.00 86 1011.6
20260509155503 25 25 1.6 4.8 0.00 0.00 0.00 86 1011.7
20260509155007 25 346 1.6 3.2 0.00 0.00 0.00 87 1011.5
20260509154508 24 177 0.0 3.2 0.00 0.00 0.00 88 1011.5
20260509154008 24 128 0.0 4.8 0.00 0.00 0.00 88 1011.6
20260509153506 25 107 1.6 4.8 0.00 0.00 0.00 87 1011.6
20260509153020 24 105 1.6 4.8 0.00 0.00 0.00 88 1011.5
20260509152507 24 106 1.6 8.0 0.00 0.00 0.00 89 1011.5
20260509152016 24 184 3.2 8.0 0.00 0.00 0.00 90 1011.3
20260509151524 24 177 4.8 8.0 0.00 0.00 0.00 90 1011.2
20260509150508 23 319 1.6 8.0 0.00 0.00 0.00 92 1011.3
20260509150008 23 188 4.8 8.0 0.00 0.00 0.00 93 1011.1
20260509145504 23 216 3.2 6.4 0.00 0.00 0.00 93 1011.0
20260509145007 23 176 1.6 6.4 0.00 0.00 0.00 93 1011.1
20260509144512 23 170 1.6 11.3 0.00 0.00 0.00 94 1011.1
20260509144008 23 305 1.6 12.9 0.00 0.00 0.00 95 1011.0
20260509143504 23 212 3.2 20.9 0.00 0.00 0.00 95 1010.6
20260509143018 23 190 8.0 20.9 0.00 0.00 0.00 95 1010.1
20260509142508 23 168 11.3 27.4 0.00 0.00 0.00 96 1009.8
20260509142009 22 175 14.5 27.4 0.00 0.00 0.00 96 1009.6
20260509141531 22 184 11.3 19.3 0.00 0.00 0.00 96 1009.5
20260509141008 22 178 11.3 16.1 0.00 0.00 0.00 96 1009.5
20260509140012 22 178 12.9 22.5 0.00 0.00 0.00 96 1009.6
20260509135507 22 201 8.0 14.5 0.00 0.00 0.00 96 1009.6
20260509135011 22 184 8.0 14.5 0.00 0.00 0.00 97 1009.6
20260509134512 22 195 8.0 14.5 0.00 0.00 0.00 97 1009.7
20260509134009 22 198 6.4 9.7 0.00 0.00 0.00 97 1009.9
20260509133508 22 190 4.8 9.7 0.00 0.00 0.00 96 1010.2
20260509133003 22 216 3.2 11.3 0.00 0.00 0.00 96 1010.2
20260509132508 22 219 3.2 11.3 0.00 0.00 0.00 97 1010.1
20260509132010 22 200 6.4 11.3 0.00 0.00 0.00 96 1010.1
20260509131508 22 197 4.8 11.3 0.00 0.00 0.00 96 1010.1
20260509131009 22 158 4.8 11.3 0.00 0.00 0.00 96 1010.0
20260509130507 22 231 6.4 11.3 0.00 0.00 0.00 96 1010.0
20260509130005 22 202 6.4 17.7 0.00 0.00 0.00 96 1010.0
20260509125507 22 200 11.3 17.7 0.00 0.00 0.00 96 1009.9
20260509125010 22 184 4.8 11.3 0.00 0.00 0.00 96 1009.8
20260509124508 22 159 6.4 11.3 0.00 0.00 0.00 96 1009.9
20260509124004 22 190 4.8 9.7 0.00 0.00 0.00 96 1009.9
20260509123503 22 182 4.8 8.0 0.00 0.00 0.00 96 1009.9
20260509123014 22 188 3.2 6.4 0.00 0.00 0.00 96 1010.1
20260509122508 22 196 3.2 4.8 0.00 0.00 0.00 96 1010.1
20260509122004 22 180 1.6 4.8 0.00 0.00 0.00 96 1010.0
20260509121510 22 166 0.0 3.2 0.00 0.00 0.00 96 1010.1
20260509121010 22 177 0.0 6.4 0.00 0.00 0.00 96 1010.1
20260509120510 22 186 3.2 8.0 0.00 0.00 0.00 96 1009.9
20260509115508 22 198 4.8 6.4 0.00 0.00 0.00 96 1010.2
20260509115006 22 207 1.6 4.8 0.00 0.00 0.00 96 1010.4
20260509114508 22 228 3.2 4.8 0.00 0.00 0.00 96 1010.4
20260509114006 22 211 0.0 4.8 0.00 0.00 0.00 96 1010.6
20260509113504 22 300 1.6 4.8 0.00 0.00 0.00 96 1010.9
20260509113012 22 218 1.6 4.8 0.00 0.00 0.00 96 1010.6
20260509112504 22 177 3.2 4.8 0.00 0.00 0.00 96 1011.0
20260509112006 22 165 1.6 4.8 0.00 0.00 0.00 96 1011.0
20260509111526 22 210 1.6 3.2 0.00 0.00 0.00 96 1011.2
20260509111010 22 288 0.0 3.2 0.00 0.00 0.00 96 1011.4
20260509110506 22 250 0.0 3.2 0.00 0.00 0.00 96 1011.5
20260509110019 22 211 1.6 3.2 0.00 0.00 0.00 96 1011.5
20260509105509 22 29 0.0 3.2 0.00 0.15 0.00 96 1011.5
20260509105006 22 15 0.0 3.2 0.00 0.15 0.00 96 1011.6
20260509104526 22 340 0.0 3.2 0.00 0.15 0.00 96 1011.5
20260509104008 22 331 0.0 3.2 0.00 0.15 0.00 96 1011.5
20260509103506 22 360 0.0 3.2 0.00 0.15 0.00 96 1011.5
20260509103009 22 329 0.0 3.2 0.00 0.15 0.00 96 1011.4
20260509102508 22 300 0.0 3.2 0.00 0.15 0.00 96 1011.4
20260509102007 22 43 0.0 3.2 0.00 0.15 0.00 96 1011.2
20260509101512 22 5 0.0 3.2 0.00 0.15 0.00 96 1011.1
20260509101007 22 91 0.0 3.2 0.00 0.15 0.00 96 1010.7
20260509100506 22 37 1.6 3.2 0.00 0.15 0.00 96 1010.6
20260509100012 22 352 0.0 3.2 0.00 0.15 0.00 96 1010.6
20260509095506 22 235 0.0 4.8 0.00 0.15 0.00 96 1010.4
20260509095009 22 196 3.2 4.8 0.00 0.15 0.00 96 1010.3
20260509094528 22 196 1.6 3.2 0.00 0.15 0.00 96 1010.6
20260509094006 22 35 0.0 3.2 0.00 0.15 0.00 96 1010.9
20260509093510 22 11 0.0 3.2 0.00 0.15 0.00 96 1011.0
20260509093006 22 5 0.0 1.6 0.00 0.15 0.00 96 1010.8
20260509092506 22 11 0.0 1.6 0.00 0.15 0.00 96 1010.5
20260509092005 22 118 0.0 1.6 0.00 0.15 0.00 96 1010.4
20260509091514 22 118 0.0 3.2 0.00 0.15 0.00 96 1010.4
20260509091007 22 118 0.0 3.2 0.00 0.15 0.00 96 1010.3
20260509090507 22 118 0.0 3.2 0.00 0.15 0.00 96 1010.3
20260509090017 22 118 0.0 3.2 0.00 0.15 0.00 96 1010.3
20260509085507 22 118 0.0 3.2 0.00 0.15 0.00 96 1010.4
20260509084513 22 118 0.0 3.2 0.00 0.15 0.00 95 1010.2
20260509084007 22 175 0.0 3.2 0.00 0.15 0.00 95 1010.4
20260509083512 22 175 0.0 3.2 0.00 0.15 0.00 95 1010.6
20260509082010 22 151 0.0 4.8 0.00 0.15 0.00 95 1010.7
20260509081508 22 150 1.6 4.8 0.00 0.15 0.00 95 1010.8
20260509081007 22 166 1.6 6.4 0.00 0.15 0.00 95 1010.8
20260509080506 22 145 1.6 6.4 0.00 0.15 0.00 95 1010.6
20260509080017 22 153 1.6 4.8 0.00 0.15 0.00 95 1010.6
20260509075507 22 153 1.6 4.8 0.00 0.15 0.00 95 1010.8
20260509075007 22 205 1.6 6.4 0.00 0.15 0.00 95 1011.0
20260509074520 22 187 3.2 8.0 0.00 0.15 0.00 95 1010.7
20260509073506 22 188 4.8 8.0 0.00 0.15 0.00 95 1011.0
20260509073021 22 213 4.8 6.4 0.00 0.15 0.00 95 1011.1
20260509072511 22 216 3.2 3.2 0.00 0.15 0.00 95 1010.9
20260509071519 22 168 0.0 3.2 0.00 0.15 0.00 94 1010.9
20260509071010 22 168 1.6 4.8 0.00 0.15 0.00 94 1011.1
20260509070504 22 188 1.6 4.8 0.00 0.15 0.00 94 1011.2
20260509070016 22 186 1.6 8.0 0.00 0.15 0.00 94 1011.2
20260509065511 22 173 3.2 8.0 0.00 0.15 0.00 94 1011.1
20260509065007 22 180 3.2 6.4 0.00 0.15 0.00 94 1010.9
20260509064525 22 147 3.2 11.3 0.00 0.15 0.00 93 1011.0
20260509064009 22 164 3.2 11.3 0.00 0.15 0.00 93 1010.7
20260509063509 22 183 6.4 11.3 0.00 0.15 0.00 93 1010.7
20260509063021 22 169 4.8 12.9 0.00 0.15 0.00 93 1010.7
20260509062511 22 190 8.0 17.7 0.00 0.15 0.00 93 1010.7
20260509062010 22 178 8.0 19.3 0.00 0.15 0.00 93 1010.7
20260509061538 22 178 6.4 19.3 0.00 0.15 0.00 93 1010.8
20260509061009 22 161 8.0 19.3 0.00 0.15 0.00 92 1010.9
20260509060507 22 171 3.2 19.3 0.00 0.15 0.00 92 1010.6
20260509060023 22 172 8.0 19.3 0.00 0.15 0.00 92 1010.4
20260509055507 22 175 6.4 17.7 0.00 0.15 0.00 92 1010.2
20260509055010 22 153 6.4 17.7 0.00 0.15 0.00 92 1010.1
20260509054514 22 115 4.8 14.5 0.00 0.15 0.00 92 1010.2
20260509054009 22 179 6.4 17.7 0.00 0.15 0.00 92 1010.3
20260509053507 22 127 9.7 17.7 0.00 0.15 0.00 92 1010.2
20260509053030 22 141 6.4 12.9 0.00 0.15 0.00 92 1010.1
20260509052509 22 152 8.0 16.1 0.00 0.15 0.00 92 1010.1
20260509052010 22 136 9.7 19.3 0.00 0.15 0.00 92 1010.1
20260509051518 22 158 11.3 19.3 0.00 0.15 0.00 91 1010.1
20260509051008 22 142 9.7 17.7 0.00 0.15 0.00 92 1010.1
20260509050509 22 171 6.4 17.7 0.00 0.15 0.00 92 1010.2
20260509050017 22 170 4.8 11.3 0.00 0.15 0.00 92 1010.2
20260509045512 22 129 6.4 12.9 0.00 0.15 0.15 92 1010.2
20260509045009 22 141 6.4 12.9 0.00 0.15 0.15 91 1010.1
20260509044525 22 183 4.8 16.1 0.00 0.15 0.15 91 1010.0
20260509044007 22 150 8.0 17.7 0.00 0.15 0.15 91 1010.0
20260509043509 22 189 6.4 17.7 0.00 0.15 0.15 91 1010.0
20260509043003 22 142 8.0 17.7 0.00 0.15 0.15 91 1009.9
20260509042505 22 187 8.0 17.7 0.00 0.15 0.15 91 1009.9
20260509042004 22 155 8.0 14.5 0.00 0.15 0.15 91 1009.9
20260509041502 22 184 6.4 11.3 0.00 0.15 0.15 90 1009.9
20260509041003 22 153 6.4 12.9 0.00 0.15 0.15 90 1009.8
20260509040503 22 128 6.4 12.9 0.00 0.15 0.15 90 1009.8
20260509040004 22 158 6.4 11.3 0.00 0.15 0.15 90 1009.8
20260509035502 22 144 6.4 11.3 0.00 0.15 0.15 89 1009.9
20260509035003 22 189 4.8 12.9 0.00 0.15 0.15 89 1009.9
20260509034502 22 150 8.0 12.9 0.00 0.15 0.15 89 1009.8
20260509034002 22 160 4.8 11.3 0.00 0.15 0.15 88 1009.7
20260509033504 23 143 6.4 9.7 0.00 0.15 0.15 88 1009.9
20260509033002 23 159 3.2 9.7 0.00 0.15 0.15 88 1009.8
20260509032503 23 151 4.8 12.9 0.00 0.15 0.15 88 1009.6
20260509032006 23 165 6.4 12.9 0.00 0.15 0.15 88 1009.5
20260509031503 23 163 6.4 12.9 0.00 0.15 0.15 88 1009.4
20260509031003 23 168 4.8 12.9 0.00 0.15 0.15 88 1009.4
20260509030504 23 165 6.4 12.9 0.00 0.15 0.15 87 1009.3
20260509030004 23 159 6.4 14.5 0.00 0.15 0.15 87 1009.3
20260509025503 23 151 6.4 14.5 0.00 0.15 0.15 87 1009.2
20260509025002 23 161 8.0 14.5 0.00 0.15 0.15 87 1009.3
20260509024504 23 160 9.7 14.5 0.00 0.15 0.15 87 1009.2
20260509024006 23 136 8.0 14.5 0.00 0.15 0.15 86 1009.2